Regional Weather Roundup
Issued by NWS

Home | Current Version | Previous Version | Text Only | Print | Product List | Glossary On
Versions: 1 2 3 4 5 6 7 8 9 10 11 12 13 14 15 16 17 18 19 20 21 22 23 24 25 26 27 28 29 30 31 32 33 34 35 36 37 38 39 40 41 42 43 44 45 46 47 48 49 50
000
ASUS46 KSTO 161615
RWRCA

NORTHERN AND CENTRAL CA REGIONAL WEATHER ROUNDUP
NATIONAL WEATHER SERVICE SACRAMENTO CA
800 AM PST MON JAN 16 2017

NOTE: FAIR INDICATES FEW OR NO CLOUDS BELOW 12,000 FEET WITH NO
SIGNIFICANT WEATHER AND/OR OBSTRUCTIONS TO VISIBILITY.

CAZ001-003-161700-
NORTHWEST AREA

CITY           SKY/WX    TMP DP  RH WIND       PRES   REMARKS
CRESCENT CITY  CLEAR     41  34  76 CALM      30.12F
UKIAH          FOG       34  34 100 CALM      30.17S VSB 1/4
$$

CAZ006-505>513-161700-
BAY AREA

CITY           SKY/WX    TMP DP  RH WIND       PRES   REMARKS
SANTA ROSA     FOG       39  39 100 CALM      30.15F VSB 1
SAN RAFAEL     N/A      MM  MM  MM MISG
NAPA           CLEAR     34  31  88 CALM      30.18S FOG
CONCORD        CLEAR     36  34  92 CALM      30.18R FOG
OAKLAND CITY   N/A       42  MM  MM MISG
OAKLAND        PTCLDY    40  36  86 E3        30.18R
SAN FRAN CITY  N/A       43  MM  84 MISG
SAN FRAN ARPT  CLEAR     46  38  73 E9        30.17R
LIVERMORE      CLEAR     38  34  85 NE6       30.16R WCI  33
HAYWARD        CLEAR     40  33  76 CALM      30.17R
REDWOOD CITY   N/A       36  MM  97 MISG
MOFFETT ARPT   CLEAR     40  37  89 NE8       30.18R FOG     WCI  34
SAN JOSE ARPT  MOCLDY    40  36  86 VRB5      30.17R FOG
$$
CAZ034-037-514>518-161700-
CENTRAL COAST

CITY           SKY/WX    TMP DP  RH WIND       PRES   REMARKS
WATSONVILLE    CLEAR     36  36 100 CALM      30.15R
SALINAS        CLEAR     38  35  89 SE10      30.14R WCI  31
MONTEREY       CLEAR     37  34  89 E6        30.13R WCI  32
SAN LUIS OBISP CLEAR     38  33  82 E3        30.10S
SANTA MARIA    CLEAR     36  36 100 CALM      30.10S
$$
CAZ015-016-161700-
NORTHERN SACRAMENTO VALLEY

CITY           SKY/WX    TMP DP  RH WIND       PRES   REMARKS
REDDING        PTCLDY    33  32  96 NW3       30.16R
RED BLUFF      CLEAR     35  31  85 N8        30.18R WCI  29
OROVILLE       FOG       36  34  92 SE5       30.18R VSB<1/4 WCI  32
$$
CAZ016>018-161700-
SOUTHERN SACRAMENTO VALLEY

CITY           SKY/WX    TMP DP  RH WIND       PRES   REMARKS
AUBURN         CLOUDY    34  34 100 S5        30.13R VSB 1/4 WCI  30
BEALE AFB      CLOUDY    33  33 100 CALM      30.17R FOG
LINCOLN        CLOUDY    32  32 100 CALM      30.18R
MARYSVILLE     FOG       33  31  92 CALM      30.19R VSB 3/4
SAC INTL ARPT  FOG       35  35 100 CALM      30.18R VSB 1/8
MATHER AIRPORT CLOUDY    41  39  93 CALM      30.18R FOG
DOWNTOWN SAC   N/A       42  MM  MM MISG
SAC EXEC ARPT  CLOUDY    41  41 100 CALM      30.19R FOG
VACAVILLE      CLEAR     33  33 100 CALM      30.19R FOG
TRAVIS AFB     CLEAR     32  32 100 CALM      30.16S FOG
$$
CAZ019>021-161700-
SAN JOAQUIN VALLEY

CITY           SKY/WX    TMP DP  RH WIND       PRES   REMARKS
STOCKTON       CLOUDY    41  41 100 CALM      30.18R FOG
MODESTO        CLOUDY    43  37  79 SW3       30.18R
MERCED         CLOUDY    44  36  73 CALM      30.18S
LEMOORE        CLOUDY    44  40  85 CALM      30.19S
FRESNO         CLOUDY    44  35  70 SE3       30.19S
HANFORD        CLOUDY    45  37  73 CALM      30.20R
PORTERVILLE    PTCLDY    44  37  76 CALM      30.20R
BAKERSFIELD    CLOUDY    44  36  73 NW5       30.19R
$$
CAZ011-012-071-161700-
NORTHERN MOUNTAINS

CITY           SKY/WX    TMP DP  RH WIND       PRES   REMARKS
YREKA          CLEAR     20  18  92 CALM      30.30S
MOUNT SHASTA   PTCLDY    27  22  81 NE6       30.23F WCI  20
ALTURAS        MOCLDY    12   9  87 CALM      30.28S
$$
CAZ011-012-071-161700-
SIERRA NEVADA MTNS

CITY           SKY/WX    TMP DP  RH WIND       PRES   REMARKS
BLUE CANYON    CLEAR     42   8  24 E13G24    30.10R
TRUCKEE        CLOUDY    18  16  93 CALM      30.26F
TAHOE VLY ARPT PTCLDY    12   8  84 CALM      30.20F
MAMMOTH LAKES  FAIR      15   5  63 NE3       30.23R
$$




USA.gov is the U.S. government's official web portal to all federal, state and local government web resources and services.